7 * 24
多渠道服务支持
STARLINK-30939是美国太空探索技术公司SpaceX星链互联网卫星星座的一员,于2023年11月20日发射入轨。星链项目旨在构建全球卫星互联网通信网络,该卫星入轨后承担全球范围低延迟、高速率的互联网接入服务,为偏远地区、海上以及航空场景提供网络覆盖,增强星链星座的服务能力。
美国
(US)
| 数据来源 | 国际轨道数据 | AOE轨道数据 |
| 星历时间 | 2026-09-11T14:41:56+0800 7小时前 查看轨道信息 | 2026-09-09T22:00:00+0800 2天前 查看轨道信息 |
| 半长轴 | 6840.882km | 6840.862km |
| 偏心率 | 0.0001343 | 0.0004029 |
| 轨道倾角 | 53.158° | 53.156° |
| 近地点辐角 | 92.642° | 140.048° |
| 升交点赤经 | 214.940° | 222.866° |
| 平近点角 | 267.474° | 207.663° |
| 近地点 | 461.826km | 459.968km |
| 远地点 | 463.664km | 465.482km |
| 周期 | 93.849分钟 | 93.848分钟 |
| 每日圈数 | 15.343861 | 15.34393 |
| 事件ID | 空间交会对象 | 最接近时刻(TCA) | 交会距离 | 交会风险概率(CRP) | 交会风险指数(CRI) | 操作 |
|---|---|---|---|---|---|---|
| CDM_260913-113105-839306-805721 |
STARLINK-30939
(58393)
STARLINK-36954
(68057) | 2026-09-13T 11:31:24+0000 |
0.758 km
远距离 | 3.198136E-5 中风险 | 0.65 | |
| CDM_260913-165905-839306-805721 |
STARLINK-30939
(58393)
STARLINK-36954
(68057) | 2026-09-13T 16:59:40+0000 |
1.114 km
极远距离 | 8.704699E-6 低风险 | 0.54 | |
| CDM_260913-002705-839306-827521 |
STARLINK-30939
(58393)
STARLINK-37123
(68275) | 2026-09-13T 00:27:33+0000 |
2.142 km
极远距离 | 1.161065E-6 低风险 | 0.36 | |
| CDM_260912-203305-839306-827521 |
STARLINK-30939
(58393)
STARLINK-37123
(68275) | 2026-09-12T 20:33:05+0000 |
2.176 km
极远距离 | 1.123579E-6 低风险 | 0.36 | |
| CDM_260912-220605-839306-827521 |
STARLINK-30939
(58393)
STARLINK-37123
(68275) | 2026-09-12T 22:06:52+0000 |
2.410 km
极远距离 | 9.251018E-7 极低风险 | 0.34 | |
| CDM_260913-020105-839306-827521 |
STARLINK-30939
(58393)
STARLINK-37123
(68275) | 2026-09-13T 02:01:21+0000 |
2.413 km
极远距离 | 9.223941E-7 极低风险 | 0.34 | |
| CDM_260912-155605-420705-839321 |
STARLINK-5262
(54207)
STARLINK-30939
(58393) | 2026-09-12T 15:56:27+0000 |
2.451 km
极远距离 | 5.896992E-7 极低风险 | 0.3 |